SCP
0 0 0 0 0 0 0 0 0 0 0 0 0 0 0 0 0 0 0 0 0 0 0 0 0 0 0 0 0 0 0 0 0 0 0 0 0 0 0 0 0 0 0 0
0 0 0 0 0 0 0 0 0 0 0 0 0 0 0 0 0 0 0 0 0 0 0 0 0 0 0 0 0 0 0 0 0 0 0 0 0 0 0 0 0 0 0 0
0 0 0 0 0 0 0 0 0 0 0 0 0 0 0 0 0 0 0 0 0 0 0 0 0 0 0 0 0 0 0 0 0 0 0 0 0 0 0 0 0 0 0 0
0 0 0 0 0 0 0 0 0 0 0 0 0 -0 0 0 0 0 0 -0 -0 0 0 0 0 0 0 0 0 0 0 0 0 0 0 0 0 0 0 0 0 0 0 0
0 0 0 0 0 0 0 0 0 0 0 0 0 0 -0 0 0 0 0 0 -0 0 0 0 0 0 0 0 0 0 0 0 0 0 0 0 0 0 0 0 0 0 0 0
0 0 0 0 0 0 0 0 0 0 0 0 0 0 -0 0 0 0 0 0 0 0 0 0 0 0 0 0 0 0 0 0 0 0 0 0 0 0 0 0 0 0 0 0
0 0 0 0 0 0 0 0 0 0 0 0 0 0 0 0 -0 0 0 0 0 0 0 0 0 0 0 0 0 0 0 0 0 0 0 0 0 0 0 0 0 0 0 0
0 0 0 0 0 0 0 0 0 0 0 0 0 0 0 0 0 0 0 0 0 0 0 0 0 0 0 0 0 0 0 0 0 0 0 0 0 0 0 0 0 0 0 0
0 0 0 0 0 0 0 0 0 0 0 0 0 0 0 0 0 0 0 0 0 0 0 0 0 0 0 0 0 0 0 0 0 0 0 0 0 0 0 0 0 0 0 0
0 0 0 0 0 0 0 0 0 0 0 0 -0 0 0 0 0 0 0 0 0 0 0 0 0 0 0 0 0 0 0 0 0 0 0 0 0 0 0 0 0 0 0 0
0 0 0 0 0 0 0 0 0 0 0 0 0 0 0 -0 -0 -0 0 0 0 0 0 0 0 0 0 0 0 0 0 0 0 0 0 0 0 0 0 0 0 0 0 0
0 0 0 0 0 0 0 0 0 0 0 0 0 0 0 0 0 0 0 0 0 0 0 0 0 0 0 0 0 0 0 0 0 0 0 0 0 0 0 0 0 0 0 0
0 0 0 0 0 0 0 0 0 0 0 -0 0 0 0 0 0 0 0 0 0 0 0 0 0 0 0 0 0 0 0 0 0 0 0 0 0 0 0 0 0 0 0 0
0 0 0 0 0 0 0 0 0 0 0 0 0 -0 -0 -0 0 0 0 0 0 0 0 0 0 0 0 0 0 0 0 0 0 0 0 0 0 0 0 0 0 0 0 0
0 0 0 0 0 0 0 0 0 0 0 0 0 -0 -0 -0 -0 -0 -0 0 -0 -0 -0 0 0 0 0 0 0 0 0 0 0 0 0 0 0 0 0 0 0 0 0 0
0 0 0 0 0 0 0 0 0 0 0 0 0 -0 -0 -0 -0 -0 -0 -0 -0 -0 -0 -0 -0 -0 0 0 0 0 0 0 0 0 0 0 0 0 0 0 0 0 0 0
0 0 0 0 0 0 0 0 0 0 0 0 -0 0 0 -0 0 -0 -0 -0 -0 -0 -0 -0 -0 0 0 0 0 0 0 0 0 0 0 0 0 0 0 0 0 0 0 0
0 0 0 0 0 0 0 0 -0 0 0 0 0 0 0 0 0 0 0 0 -0 -0 -0 0 0 0 0 0 0 0 0 0 0 0 0 0 0 0 0 0 0 0 0 0
0 0 0 0 0 0 0 0 0 0 0 0 0 0 0 0 -0 -0 0 0 0 0 0 0 0 0 0 0 0 0 0 0 0 0 0 0 0 0 0 0 0 0 0 0
0 0 0 0 0 0 0 0 0 0 0 0 0 0 0 0 0 -0 -0 -0 0 0 0 0 0 0 0 0 0 0 0 0 0 0 0 0 0 0 0 0 0 0 0 0
0 0 0 0 0 0 0 0 0 0 0 0 0 0 0 0 0 0 0 0 0 0 0 0 0 0 0 0 0 0 0 0 0 0 0 0 0 0 0 0 0 0 0 0
0 0 0 0 0 0 0 0 0 0 0 0 0 -0 -0 0 0 0 0 0 0 0 0 0 0 0 0 0 0 0 0 0 0 0 0 0 0 0 0 0 0 0 0 0
0 0 0 0 0 0 0 0 0 0 0 -0 -0 -0 -0 -0 0 0 0 0 0 0 0 0 0 0 0 0 0 0 0 0 0 0 0 0 0 0 0 0 0 0 0 0
0 0 0 0 0 0 0 -0 -0 -0 -0 -0 -0 -0 -0 -0 -0 0 0 0 0 0 0 0 0 0 0 0 0 0 0 0 0 0 0 0 0 0 0 0 0 0 0 0
0 0 0 0 0 0 0 0 0 -0 -0 -0 -0 -0 -0 -0 -0 -0 0 0 0 0 0 0 0 0 0 0 0 0 0 0 0 0 0 0 0 0 0 0 0 0 0 0
0 0 0 0 0 0 0 0 0 0 -0 -0 -0 -0 -0 -0 0 -0 0 0 0 0 0 0 0 0 0 0 0 0 0 0 0 0 0 0 0 0 0 0 0 0 0 0
Wind_Speed_500mb
36 16 33 55 56 40 32 28 36 31 22 19 37 40 44 48 43 40 36 37 52 53 68 57 53 54 58 61 64 69 69 66 61 62 64 65 66 61 59 57 55 50 48 44
12 31 64 39 32 35 27 33 31 21 25 21 35 38 42 48 52 53 57 56 55 54 60 63 67 63 64 65 66 67 71 71 71 71 69 67 65 65 61 59 59 56 54 52
39 32 48 37 30 35 39 36 34 24 9 24 25 44 47 51 56 65 68 68 66 66 57 56 66 71 68 69 72 75 73 70 76 76 72 73 71 71 67 66 64 61 59 57
34 50 20 44 37 45 38 50 47 26 11 26 17 32 40 32 34 50 72 75 80 78 76 73 61 72 72 72 71 74 77 77 80 78 80 83 83 82 71 67 69 63 62 61
33 32 38 29 56 40 32 35 38 50 35 25 38 21 35 40 53 51 59 67 76 80 81 91 86 89 82 77 74 75 74 80 83 85 83 85 85 80 72 73 72 66 63 60
42 7 22 56 37 25 12 10 26 29 28 22 54 36 37 42 51 39 50 66 67 69 70 81 89 98 92 84 81 78 83 82 82 85 84 86 83 79 82 79 77 71 65 63
28 25 18 17 30 19 22 14 8 17 16 23 38 30 46 27 42 46 43 57 58 54 59 67 78 99 103 97 92 88 85 90 88 89 88 87 81 81 84 81 76 73 67 64
29 26 28 31 32 18 47 18 7 11 13 33 10 19 23 38 66 81 67 56 52 37 45 58 71 79 88 108 100 99 99 93 89 89 86 85 83 82 84 81 76 74 69 61
43 36 22 34 19 23 11 27 32 14 1 3 7 31 23 23 23 42 64 63 65 65 70 63 54 68 77 87 96 96 100 101 100 97 89 85 83 84 82 74 70 70 64 57
16 24 21 24 31 36 26 13 8 11 11 20 26 34 23 18 35 37 33 45 58 64 63 59 67 66 69 65 72 79 82 86 98 98 93 87 83 81 77 76 73 67 60 56
21 18 13 22 25 35 22 17 10 1 7 5 9 19 9 32 32 35 35 47 50 49 65 60 58 58 62 63 62 69 77 83 84 94 93 87 82 79 75 73 72 68 61 56
24 7 13 35 1 22 35 39 39 9 9 5 4 19 3 8 11 20 31 45 37 38 43 46 50 42 52 51 55 58 64 72 72 74 81 79 73 72 69 65 63 65 62 59
28 13 10 8 10 12 25 37 32 29 13 19 9 24 12 12 21 34 32 43 41 32 28 26 32 32 41 41 39 40 50 59 66 69 70 70 67 66 62 60 60 61 61 60
45 9 26 26 29 11 18 22 25 32 17 28 26 67 50 43 47 51 59 52 45 54 50 42 37 34 50 48 42 37 40 45 46 53 58 63 63 61 58 55 57 57 57 56
26 23 25 37 21 9 8 5 28 35 38 28 38 55 61 39 37 52 59 66 64 81 64 57 53 45 40 47 43 38 37 38 47 55 59 61 60 58 56 53 52 50 47 45
2 10 11 7 17 17 17 24 23 26 31 32 49 57 73 65 63 59 59 56 68 71 70 71 56 64 46 46 48 49 48 50 49 50 52 55 56 54 52 50 48 45 43 43
10 11 11 9 10 12 10 36 42 40 38 38 41 56 69 54 41 59 66 73 84 73 68 82 82 70 57 51 56 56 53 51 50 49 48 50 50 50 48 46 44 42 39 37
17 8 3 7 7 11 8 2 21 24 32 38 46 56 68 86 59 48 66 80 83 74 72 80 83 76 79 67 61 56 54 55 52 52 51 52 51 50 48 46 43 40 38 35
14 8 7 7 10 13 24 15 19 15 14 5 32 51 83 100 58 75 84 69 75 87 88 88 81 80 80 72 65 63 63 62 58 57 58 58 55 53 50 46 43 40 38 37
13 5 6 7 8 14 6 12 18 11 12 13 32 38 35 47 33 46 55 71 87 96 95 92 98 83 75 71 68 69 68 66 64 63 60 56 52 48 46 45 44 42 40 39
11 7 15 8 11 14 18 6 4 9 5 10 18 32 49 30 38 71 64 79 75 62 55 62 72 89 64 55 70 76 75 74 67 64 59 56 53 51 49 48 46 46 46 46
19 17 12 10 13 17 15 5 13 5 12 18 24 20 29 65 79 64 69 50 41 55 69 71 73 73 60 58 76 80 82 75 71 66 63 60 58 57 54 51 51 51 50 50
12 13 12 19 11 2 12 1 22 33 38 27 21 33 38 48 69 74 69 69 53 51 48 48 68 74 60 69 82 85 83 78 74 69 66 63 62 58 56 55 55 56 57 55
9 12 4 3 11 24 32 22 36 48 32 42 55 57 47 40 57 76 75 78 73 57 55 48 53 65 60 65 79 83 81 81 78 76 72 68 65 62 60 60 58 58 60 58
3 22 14 7 19 31 47 32 34 45 55 70 63 53 57 56 64 71 79 78 84 67 64 51 53 55 61 61 73 82 84 87 86 82 79 74 71 68 67 64 63 60 55 51
4 7 4 5 20 21 30 31 43 50 56 60 66 74 73 73 71 71 70 77 78 73 66 57 51 48 53 66 78 88 92 93 93 92 86 81 80 76 74 73 68 57 49 47
Wind_Direction_500mb
177 193 203 212 213 236 257 245 242 236 243 231 242 244 252 250 244 245 244 233 244 242 245 240 243 239 232 230 227 228 229 227 226 227 229 230 233 233 235 233 233 230 234 235
181 212 219 222 221 232 244 243 241 254 239 233 259 256 261 253 248 248 252 249 244 246 243 240 235 235 238 236 232 231 232 232 230 230 232 234 238 239 239 241 241 238 238 239
209 212 217 214 211 218 227 237 232 243 234 244 272 268 261 259 252 252 251 250 251 245 242 237 236 237 239 240 241 235 234 235 235 233 234 236 239 240 238 240 243 242 241 243
215 224 190 208 225 214 231 220 236 236 245 254 216 277 262 263 260 244 247 243 243 242 238 236 234 238 239 241 244 243 239 236 237 235 234 236 239 242 244 246 247 247 247 248
208 207 205 223 220 202 240 227 227 235 237 262 253 265 266 253 259 248 245 242 241 239 235 236 237 241 242 243 242 244 242 240 238 238 237 238 241 245 247 247 249 249 249 248
217 158 207 228 219 214 249 239 229 231 233 231 239 221 253 246 253 259 252 244 244 243 239 239 238 244 245 244 241 238 236 238 238 239 240 239 243 245 245 245 249 250 249 248
192 203 179 163 197 204 203 192 220 204 205 230 229 229 239 264 244 251 254 254 250 247 242 239 238 238 241 242 240 239 238 239 239 240 242 242 243 243 245 247 249 251 251 251
198 199 181 200 205 185 221 217 213 239 184 231 135 233 240 243 245 259 256 257 258 255 257 249 239 244 239 241 243 244 241 239 238 240 241 243 242 242 244 244 247 249 250 251
196 219 184 194 189 187 168 216 230 289 336 310 214 258 277 236 243 249 252 257 255 257 262 256 245 248 249 244 246 246 245 243 239 239 244 245 241 238 241 243 245 248 249 249
199 213 211 185 199 224 216 168 161 193 249 243 215 248 247 215 231 240 247 247 254 259 264 260 255 251 251 251 250 247 245 246 244 243 241 243 241 239 240 241 242 244 246 246
184 213 161 155 200 192 189 210 199 244 198 254 259 240 253 222 215 236 247 254 263 265 265 275 273 260 254 252 248 244 237 239 241 241 240 239 237 237 239 241 242 242 243 244
187 185 174 205 208 239 204 216 210 230 211 247 329 266 105 307 319 284 281 285 288 278 278 275 272 264 243 249 248 240 234 236 241 241 236 236 235 235 239 242 241 238 238 242
177 188 152 188 242 253 217 217 214 225 250 237 270 269 54 36 348 321 307 309 311 315 315 305 279 265 240 247 243 234 231 232 233 235 231 227 228 232 234 234 232 232 234 237
166 176 216 215 219 222 204 204 215 225 238 253 236 269 261 275 292 299 301 308 297 312 319 321 314 281 249 241 238 231 232 226 224 220 219 221 223 226 229 230 229 229 230 232
179 207 209 233 261 275 259 205 220 225 237 239 256 265 267 262 269 269 274 278 288 293 296 305 311 306 271 245 235 228 223 222 219 218 218 221 222 223 221 223 225 226 226 229
74 145 160 251 230 237 256 248 232 235 241 248 256 267 275 274 277 264 263 270 273 277 286 296 296 300 284 247 236 230 224 219 217 217 214 213 213 214 215 215 216 218 221 224
140 146 163 154 104 127 235 231 233 242 246 238 251 252 270 274 258 258 262 258 261 265 274 283 285 286 282 260 240 236 229 220 208 204 205 205 204 203 203 206 208 210 211 212
137 108 104 138 188 232 237 61 218 222 251 244 249 257 265 269 271 275 260 257 264 267 267 272 276 281 272 266 244 239 231 222 213 203 199 198 197 197 197 198 198 197 197 198
161 117 132 164 205 316 280 243 218 187 272 70 265 253 258 273 303 270 257 270 270 271 269 273 280 275 279 267 250 234 224 216 206 198 193 191 191 191 192 191 190 193 196 197
155 154 146 144 188 230 331 193 137 125 262 65 13 11 325 316 281 273 285 270 262 265 268 269 265 274 274 260 241 223 213 206 198 197 192 190 191 194 194 194 193 193 192 191
155 158 190 178 234 272 257 208 60 189 315 4 341 352 330 314 305 315 303 274 280 281 278 275 265 266 270 250 222 211 207 205 200 196 194 194 195 196 198 196 194 192 188 186
171 167 180 190 230 257 213 114 192 117 296 285 306 332 341 314 323 324 322 320 304 288 277 271 276 274 257 230 215 212 211 207 202 196 198 199 198 197 198 199 193 189 189 186
189 192 181 198 209 220 194 205 291 296 299 307 313 327 336 322 323 320 332 333 326 315 302 278 264 270 254 229 219 221 215 209 202 200 201 203 201 200 200 198 196 190 188 189
226 185 213 141 242 255 277 290 299 309 309 325 335 337 339 329 325 324 328 333 331 327 322 312 281 261 250 239 225 223 216 209 206 204 204 204 203 199 198 197 197 195 192 189
138 149 200 270 281 284 280 292 333 323 321 323 328 332 329 332 326 325 324 332 334 328 322 317 302 268 247 235 232 218 215 213 208 207 205 204 203 203 200 197 195 196 198 202
46 359 207 229 19 324 293 340 320 324 325 318 318 319 316 321 326 321 320 327 335 334 324 316 307 277 250 229 227 224 219 216 213 207 205 205 203 202 201 196 189 186 193 189
Wind_Speed_850mb
36 16 33 55 56 40 32 28 36 31 22 19 37 40 44 48 43 40 36 37 52 53 68 57 53 54 58 61 64 69 69 66 61 62 64 65 66 61 59 57 55 50 48 44
12 31 64 39 32 35 27 33 31 21 25 21 35 38 42 48 52 53 57 56 55 54 60 63 67 63 64 65 66 67 71 71 71 71 69 67 65 65 61 59 59 56 54 52
39 32 48 37 30 35 39 36 34 24 9 24 25 44 47 51 56 65 68 68 66 66 57 56 66 71 68 69 72 75 73 70 76 76 72 73 71 71 67 66 64 61 59 57
34 50 20 44 37 45 38 50 47 26 11 26 17 32 40 32 34 50 72 75 80 78 76 73 61 72 72 72 71 74 77 77 80 78 80 83 83 82 71 67 69 63 62 61
33 32 38 29 56 40 32 35 38 50 35 25 38 21 35 40 53 51 59 67 76 80 81 91 86 89 82 77 74 75 74 80 83 85 83 85 85 80 72 73 72 66 63 60
42 7 22 56 37 25 12 10 26 29 28 22 54 36 37 42 51 39 50 66 67 69 70 81 89 98 92 84 81 78 83 82 82 85 84 86 83 79 82 79 77 71 65 63
28 25 18 17 30 19 22 14 8 17 16 23 38 30 46 27 42 46 43 57 58 54 59 67 78 99 103 97 92 88 85 90 88 89 88 87 81 81 84 81 76 73 67 64
29 26 28 31 32 18 47 18 7 11 13 33 10 19 23 38 66 81 67 56 52 37 45 58 71 79 88 108 100 99 99 93 89 89 86 85 83 82 84 81 76 74 69 61
43 36 22 34 19 23 11 27 32 14 1 3 7 31 23 23 23 42 64 63 65 65 70 63 54 68 77 87 96 96 100 101 100 97 89 85 83 84 82 74 70 70 64 57
16 24 21 24 31 36 26 13 8 11 11 20 26 34 23 18 35 37 33 45 58 64 63 59 67 66 69 65 72 79 82 86 98 98 93 87 83 81 77 76 73 67 60 56
21 18 13 22 25 35 22 17 10 1 7 5 9 19 9 32 32 35 35 47 50 49 65 60 58 58 62 63 62 69 77 83 84 94 93 87 82 79 75 73 72 68 61 56
24 7 13 35 1 22 35 39 39 9 9 5 4 19 3 8 11 20 31 45 37 38 43 46 50 42 52 51 55 58 64 72 72 74 81 79 73 72 69 65 63 65 62 59
28 13 10 8 10 12 25 37 32 29 13 19 9 24 12 12 21 34 32 43 41 32 28 26 32 32 41 41 39 40 50 59 66 69 70 70 67 66 62 60 60 61 61 60
45 9 26 26 29 11 18 22 25 32 17 28 26 67 50 43 47 51 59 52 45 54 50 42 37 34 50 48 42 37 40 45 46 53 58 63 63 61 58 55 57 57 57 56
26 23 25 37 21 9 8 5 28 35 38 28 38 55 61 39 37 52 59 66 64 81 64 57 53 45 40 47 43 38 37 38 47 55 59 61 60 58 56 53 52 50 47 45
2 10 11 7 17 17 17 24 23 26 31 32 49 57 73 65 63 59 59 56 68 71 70 71 56 64 46 46 48 49 48 50 49 50 52 55 56 54 52 50 48 45 43 43
10 11 11 9 10 12 10 36 42 40 38 38 41 56 69 54 41 59 66 73 84 73 68 82 82 70 57 51 56 56 53 51 50 49 48 50 50 50 48 46 44 42 39 37
17 8 3 7 7 11 8 2 21 24 32 38 46 56 68 86 59 48 66 80 83 74 72 80 83 76 79 67 61 56 54 55 52 52 51 52 51 50 48 46 43 40 38 35
14 8 7 7 10 13 24 15 19 15 14 5 32 51 83 100 58 75 84 69 75 87 88 88 81 80 80 72 65 63 63 62 58 57 58 58 55 53 50 46 43 40 38 37
13 5 6 7 8 14 6 12 18 11 12 13 32 38 35 47 33 46 55 71 87 96 95 92 98 83 75 71 68 69 68 66 64 63 60 56 52 48 46 45 44 42 40 39
11 7 15 8 11 14 18 6 4 9 5 10 18 32 49 30 38 71 64 79 75 62 55 62 72 89 64 55 70 76 75 74 67 64 59 56 53 51 49 48 46 46 46 46
19 17 12 10 13 17 15 5 13 5 12 18 24 20 29 65 79 64 69 50 41 55 69 71 73 73 60 58 76 80 82 75 71 66 63 60 58 57 54 51 51 51 50 50
12 13 12 19 11 2 12 1 22 33 38 27 21 33 38 48 69 74 69 69 53 51 48 48 68 74 60 69 82 85 83 78 74 69 66 63 62 58 56 55 55 56 57 55
9 12 4 3 11 24 32 22 36 48 32 42 55 57 47 40 57 76 75 78 73 57 55 48 53 65 60 65 79 83 81 81 78 76 72 68 65 62 60 60 58 58 60 58
3 22 14 7 19 31 47 32 34 45 55 70 63 53 57 56 64 71 79 78 84 67 64 51 53 55 61 61 73 82 84 87 86 82 79 74 71 68 67 64 63 60 55 51
4 7 4 5 20 21 30 31 43 50 56 60 66 74 73 73 71 71 70 77 78 73 66 57 51 48 53 66 78 88 92 93 93 92 86 81 80 76 74 73 68 57 49 47
Wind_Direction_850mb
177 193 203 212 213 236 257 245 242 236 243 231 242 244 252 250 244 245 244 233 244 242 245 240 243 239 232 230 227 228 229 227 226 227 229 230 233 233 235 233 233 230 234 235
181 212 219 222 221 232 244 243 241 254 239 233 259 256 261 253 248 248 252 249 244 246 243 240 235 235 238 236 232 231 232 232 230 230 232 234 238 239 239 241 241 238 238 239
209 212 217 214 211 218 227 237 232 243 234 244 272 268 261 259 252 252 251 250 251 245 242 237 236 237 239 240 241 235 234 235 235 233 234 236 239 240 238 240 243 242 241 243
215 224 190 208 225 214 231 220 236 236 245 254 216 277 262 263 260 244 247 243 243 242 238 236 234 238 239 241 244 243 239 236 237 235 234 236 239 242 244 246 247 247 247 248
208 207 205 223 220 202 240 227 227 235 237 262 253 265 266 253 259 248 245 242 241 239 235 236 237 241 242 243 242 244 242 240 238 238 237 238 241 245 247 247 249 249 249 248
217 158 207 228 219 214 249 239 229 231 233 231 239 221 253 246 253 259 252 244 244 243 239 239 238 244 245 244 241 238 236 238 238 239 240 239 243 245 245 245 249 250 249 248
192 203 179 163 197 204 203 192 220 204 205 230 229 229 239 264 244 251 254 254 250 247 242 239 238 238 241 242 240 239 238 239 239 240 242 242 243 243 245 247 249 251 251 251
198 199 181 200 205 185 221 217 213 239 184 231 135 233 240 243 245 259 256 257 258 255 257 249 239 244 239 241 243 244 241 239 238 240 241 243 242 242 244 244 247 249 250 251
196 219 184 194 189 187 168 216 230 289 336 310 214 258 277 236 243 249 252 257 255 257 262 256 245 248 249 244 246 246 245 243 239 239 244 245 241 238 241 243 245 248 249 249
199 213 211 185 199 224 216 168 161 193 249 243 215 248 247 215 231 240 247 247 254 259 264 260 255 251 251 251 250 247 245 246 244 243 241 243 241 239 240 241 242 244 246 246
184 213 161 155 200 192 189 210 199 244 198 254 259 240 253 222 215 236 247 254 263 265 265 275 273 260 254 252 248 244 237 239 241 241 240 239 237 237 239 241 242 242 243 244
187 185 174 205 208 239 204 216 210 230 211 247 329 266 105 307 319 284 281 285 288 278 278 275 272 264 243 249 248 240 234 236 241 241 236 236 235 235 239 242 241 238 238 242
177 188 152 188 242 253 217 217 214 225 250 237 270 269 54 36 348 321 307 309 311 315 315 305 279 265 240 247 243 234 231 232 233 235 231 227 228 232 234 234 232 232 234 237
166 176 216 215 219 222 204 204 215 225 238 253 236 269 261 275 292 299 301 308 297 312 319 321 314 281 249 241 238 231 232 226 224 220 219 221 223 226 229 230 229 229 230 232
179 207 209 233 261 275 259 205 220 225 237 239 256 265 267 262 269 269 274 278 288 293 296 305 311 306 271 245 235 228 223 222 219 218 218 221 222 223 221 223 225 226 226 229
74 145 160 251 230 237 256 248 232 235 241 248 256 267 275 274 277 264 263 270 273 277 286 296 296 300 284 247 236 230 224 219 217 217 214 213 213 214 215 215 216 218 221 224
140 146 163 154 104 127 235 231 233 242 246 238 251 252 270 274 258 258 262 258 261 265 274 283 285 286 282 260 240 236 229 220 208 204 205 205 204 203 203 206 208 210 211 212
137 108 104 138 188 232 237 61 218 222 251 244 249 257 265 269 271 275 260 257 264 267 267 272 276 281 272 266 244 239 231 222 213 203 199 198 197 197 197 198 198 197 197 198
161 117 132 164 205 316 280 243 218 187 272 70 265 253 258 273 303 270 257 270 270 271 269 273 280 275 279 267 250 234 224 216 206 198 193 191 191 191 192 191 190 193 196 197
155 154 146 144 188 230 331 193 137 125 262 65 13 11 325 316 281 273 285 270 262 265 268 269 265 274 274 260 241 223 213 206 198 197 192 190 191 194 194 194 193 193 192 191
155 158 190 178 234 272 257 208 60 189 315 4 341 352 330 314 305 315 303 274 280 281 278 275 265 266 270 250 222 211 207 205 200 196 194 194 195 196 198 196 194 192 188 186
171 167 180 190 230 257 213 114 192 117 296 285 306 332 341 314 323 324 322 320 304 288 277 271 276 274 257 230 215 212 211 207 202 196 198 199 198 197 198 199 193 189 189 186
189 192 181 198 209 220 194 205 291 296 299 307 313 327 336 322 323 320 332 333 326 315 302 278 264 270 254 229 219 221 215 209 202 200 201 203 201 200 200 198 196 190 188 189
226 185 213 141 242 255 277 290 299 309 309 325 335 337 339 329 325 324 328 333 331 327 322 312 281 261 250 239 225 223 216 209 206 204 204 204 203 199 198 197 197 195 192 189
138 149 200 270 281 284 280 292 333 323 321 323 328 332 329 332 326 325 324 332 334 328 322 317 302 268 247 235 232 218 215 213 208 207 205 204 203 203 200 197 195 196 198 202
46 359 207 229 19 324 293 340 320 324 325 318 318 319 316 321 326 321 320 327 335 334 324 316 307 277 250 229 227 224 219 216 213 207 205 205 203 202 201 196 189 186 193 189